When you browse on this site, cookies collect data to enhance your experience and personalize the content and advertising you see.
Visit our Privacy Policy to learn more. By continuing to use the site, you agree to this use of cookies and data.
  • In Austria
  • List of Countries
  • For 7 days
  • Water Temperature
  • Satellite Maps
  • Weather Map
  • News
  • Weather Widgets
  • user-avatar
    Login

    Hourly Weather Knyaz-Bor

    Today, 22 July, Monday

    Time Temperature Precipitation Wind Pressure Humidity
    00:00 +19°C° 0.3 mm 2 mps 751 mmHg 86%
    01:00 +20°C° 0.3 mm 1 mps 751 mmHg 89%
    02:00 +19°C° 0.3 mm 1 mps 750 mmHg 92%
    03:00 +19°C° 0.9 mm 1 mps 750 mmHg 93%
    04:00 +18°C° 0.9 mm 2 mps 750 mmHg 95%
    05:00 +18°C° 0.9 mm 3 mps 750 mmHg 97%
    06:00 +18°C° 1.7 mm 3 mps 750 mmHg 97%
    07:00 +18°C° 1.7 mm 4 mps 750 mmHg 96%
    08:00 +17°C° 1.7 mm 5 mps 750 mmHg 96%
    09:00 +18°C° 0.4 mm 4 mps 751 mmHg 95%
    10:00 +19°C° 0.4 mm 4 mps 751 mmHg 94%
    11:00 +19°C° 0.4 mm 3 mps 751 mmHg 93%
    12:00 +20°C° 0.4 mm 4 mps 751 mmHg 88%
    13:00 +21°C° 0.4 mm 4 mps 751 mmHg 83%
    14:00 +23°C° 0.4 mm 5 mps 751 mmHg 78%
    15:00 +23°C° 0.2 mm 4 mps 751 mmHg 76%
    16:00 +23°C° 0.2 mm 4 mps 751 mmHg 73%
    17:00 +25°C° 0.2 mm 4 mps 751 mmHg 71%
    18:00 +22°C° 0.1 mm 4 mps 751 mmHg 77%
    19:00 +20°C° 0.1 mm 3 mps 751 mmHg 82%
    20:00 +19°C° 0.1 mm 3 mps 750 mmHg 87%
    21:00 +18°C° 0 mm 3 mps 751 mmHg 90%
    22:00 +17°C° 0 mm 3 mps 751 mmHg 93%
    23:00 +16°C° 0 mm 3 mps 751 mmHg 95%

    Tomorrow, 23 July, Tuesday

    Time Temperature Precipitation Wind Pressure Humidity
    00:00 +16°C° 0 mm 3 mps 751 mmHg 95%
    01:00 +14°C° 0 mm 3 mps 750 mmHg 96%
    02:00 +14°C° 0 mm 4 mps 750 mmHg 96%
    03:00 +13°C° 0 mm 3 mps 750 mmHg 96%
    04:00 +13°C° 0 mm 3 mps 750 mmHg 96%
    05:00 +12°C° 0 mm 3 mps 750 mmHg 97%
    06:00 +13°C° 0 mm 3 mps 750 mmHg 95%
    07:00 +14°C° 0 mm 3 mps 750 mmHg 92%
    08:00 +14°C° 0 mm 3 mps 750 mmHg 90%
    09:00 +15°C° 0 mm 4 mps 750 mmHg 88%
    10:00 +17°C° 0 mm 4 mps 750 mmHg 86%
    11:00 +16°C° 0 mm 5 mps 750 mmHg 84%
    12:00 +18°C° 0.3 mm 4 mps 750 mmHg 86%
    13:00 +18°C° 0.3 mm 4 mps 750 mmHg 88%
    14:00 +18°C° 0.3 mm 4 mps 750 mmHg 91%
    15:00 +18°C° 0.4 mm 4 mps 750 mmHg 89%
    16:00 +19°C° 0.4 mm 4 mps 750 mmHg 88%
    17:00 +20°C° 0.4 mm 4 mps 750 mmHg 86%
    18:00 +19°C° 0.4 mm 3 mps 750 mmHg 88%
    19:00 +18°C° 0.4 mm 3 mps 749 mmHg 90%
    20:00 +18°C° 0.4 mm 3 mps 749 mmHg 92%
    21:00 +17°C° 0 mm 3 mps 749 mmHg 93%
    22:00 +17°C° 0 mm 3 mps 750 mmHg 94%
    23:00 +16°C° 0 mm 3 mps 750 mmHg 95%

    Day after tomorrow, 24 July, Wednesday

    Time Temperature Precipitation Wind Pressure Humidity
    00:00 +16°C° 0 mm 3 mps 750 mmHg 95%
    01:00 +16°C° 0 mm 3 mps 749 mmHg 96%
    02:00 +14°C° 0 mm 3 mps 749 mmHg 96%
    03:00 +14°C° 0 mm 3 mps 749 mmHg 97%
    04:00 +14°C° 0 mm 3 mps 750 mmHg 97%
    05:00 +14°C° 0 mm 3 mps 750 mmHg 97%
    06:00 +16°C° 0 mm 3 mps 750 mmHg 94%
    07:00 +18°C° 0 mm 3 mps 750 mmHg 90%
    08:00 +19°C° 0 mm 3 mps 750 mmHg 86%
    09:00 +21°C° 0 mm 4 mps 750 mmHg 79%
    10:00 +22°C° 0 mm 4 mps 750 mmHg 71%
    11:00 +25°C° 0 mm 5 mps 750 mmHg 63%
    12:00 +25°C° 0 mm 5 mps 750 mmHg 60%
    13:00 +26°C° 0 mm 5 mps 750 mmHg 58%
    14:00 +26°C° 0 mm 5 mps 750 mmHg 55%
    15:00 +26°C° 0 mm 5 mps 750 mmHg 57%
    16:00 +26°C° 0 mm 4 mps 750 mmHg 59%
    17:00 +25°C° 0 mm 4 mps 750 mmHg 62%
    18:00 +23°C° 0 mm 4 mps 750 mmHg 68%
    19:00 +21°C° 0 mm 3 mps 750 mmHg 74%
    20:00 +19°C° 0 mm 3 mps 750 mmHg 81%
    21:00 +19°C° 0 mm 3 mps 751 mmHg 82%
    22:00 +18°C° 0 mm 3 mps 751 mmHg 84%
    23:00 +17°C° 0 mm 3 mps 751 mmHg 86%

    25 July, Thursday

    Time Temperature Precipitation Wind Pressure Humidity
    00:00 +16°C° 0 mm 3 mps 751 mmHg 85%
    01:00 +16°C° 0 mm 3 mps 751 mmHg 85%
    02:00 +16°C° 0 mm 3 mps 751 mmHg 85%
    03:00 +16°C° 0 mm 3 mps 751 mmHg 85%
    04:00 +16°C° 0 mm 3 mps 751 mmHg 86%
    05:00 +16°C° 0 mm 3 mps 751 mmHg 86%
    06:00 +17°C° 0 mm 4 mps 752 mmHg 81%
    07:00 +19°C° 0 mm 4 mps 752 mmHg 75%
    08:00 +21°C° 0 mm 5 mps 752 mmHg 70%
    09:00 +22°C° 0 mm 5 mps 752 mmHg 66%
    10:00 +23°C° 0 mm 5 mps 752 mmHg 62%
    11:00 +24°C° 0 mm 6 mps 752 mmHg 57%
    12:00 +25°C° 0.1 mm 5 mps 752 mmHg 63%
    13:00 +23°C° 0.1 mm 5 mps 752 mmHg 69%
    14:00 +23°C° 0.1 mm 4 mps 752 mmHg 74%
    15:00 +23°C° 0.2 mm 4 mps 752 mmHg 77%
    16:00 +23°C° 0.2 mm 4 mps 752 mmHg 79%
    17:00 +22°C° 0.2 mm 4 mps 752 mmHg 82%
    18:00 +22°C° 0.1 mm 4 mps 752 mmHg 85%
    19:00 +21°C° 0.1 mm 4 mps 752 mmHg 87%
    20:00 +21°C° 0.1 mm 3 mps 752 mmHg 90%
    21:00 +20°C° 0 mm 3 mps 752 mmHg 91%
    22:00 +19°C° 0 mm 3 mps 752 mmHg 92%
    23:00 +19°C° 0 mm 3 mps 753 mmHg 93%

    26 July, Friday

    Time Temperature Precipitation Wind Pressure Humidity
    00:00 +18°C° 0 mm 3 mps 753 mmHg 94%
    01:00 +18°C° 0 mm 2 mps 753 mmHg 95%
    02:00 +17°C° 0 mm 2 mps 753 mmHg 96%
    03:00 +17°C° 0 mm 2 mps 753 mmHg 96%
    04:00 +17°C° 0 mm 2 mps 753 mmHg 96%
    05:00 +17°C° 0 mm 2 mps 753 mmHg 96%
    06:00 +18°C° 0 mm 3 mps 753 mmHg 90%
    07:00 +20°C° 0 mm 3 mps 753 mmHg 83%
    08:00 +21°C° 0 mm 3 mps 753 mmHg 76%
    09:00 +23°C° 0 mm 4 mps 753 mmHg 69%
    10:00 +26°C° 0 mm 4 mps 753 mmHg 62%
    11:00 +27°C° 0 mm 4 mps 753 mmHg 55%
    12:00 +28°C° 0 mm 4 mps 753 mmHg 55%
    13:00 +28°C° 0 mm 4 mps 752 mmHg 55%
    14:00 +29°C° 0 mm 3 mps 752 mmHg 55%
    15:00 +28°C° 0.2 mm 3 mps 752 mmHg 59%
    16:00 +28°C° 0.2 mm 3 mps 752 mmHg 62%
    17:00 +28°C° 0.2 mm 3 mps 751 mmHg 66%
    18:00 +26°C° 0.1 mm 3 mps 751 mmHg 70%
    19:00 +24°C° 0.1 mm 2 mps 752 mmHg 75%
    20:00 +21°C° 0.1 mm 2 mps 752 mmHg 79%
    21:00 +21°C° 0 mm 1 mps 752 mmHg 82%
    22:00 +21°C° 0 mm 1 mps 752 mmHg 85%
    23:00 +20°C° 0 mm 1 mps 752 mmHg 88%

    27 July, Saturday

    Time Temperature Precipitation Wind Pressure Humidity
    00:00 +19°C° 0 mm 1 mps 752 mmHg 90%
    01:00 +19°C° 0 mm 1 mps 751 mmHg 92%
    02:00 +19°C° 0 mm 1 mps 751 mmHg 93%
    03:00 +18°C° 0 mm 1 mps 751 mmHg 94%
    04:00 +18°C° 0 mm 1 mps 751 mmHg 94%
    05:00 +18°C° 0 mm 1 mps 751 mmHg 95%
    06:00 +20°C° 0 mm 1 mps 751 mmHg 89%
    07:00 +21°C° 0 mm 2 mps 751 mmHg 82%
    08:00 +23°C° 0 mm 2 mps 751 mmHg 76%
    09:00 +25°C° 0 mm 2 mps 751 mmHg 70%
    10:00 +26°C° 0 mm 2 mps 751 mmHg 64%
    11:00 +28°C° 0 mm 3 mps 751 mmHg 57%
    12:00 +28°C° 0 mm 2 mps 750 mmHg 57%
    13:00 +28°C° 0 mm 2 mps 750 mmHg 56%
    14:00 +28°C° 0 mm 2 mps 750 mmHg 56%
    15:00 +28°C° 0 mm 2 mps 750 mmHg 57%
    16:00 +28°C° 0 mm 2 mps 749 mmHg 59%
    17:00 +28°C° 0 mm 2 mps 749 mmHg 61%
    18:00 +26°C° 0 mm 2 mps 749 mmHg 67%
    19:00 +25°C° 0 mm 2 mps 749 mmHg 73%
    20:00 +23°C° 0 mm 1 mps 749 mmHg 79%
    21:00 +22°C° 0 mm 1 mps 749 mmHg 80%
    22:00 +21°C° 0 mm 1 mps 749 mmHg 81%
    23:00 +20°C° 0 mm 1 mps 749 mmHg 82%
    Show more